Location: Star Camp Observatory
(34.2910°N, 116.3827°W)
Time: 05:03:36
(UTC-08:00)

Envisat - Pass Details

Date: 22 November 2019
Orbit: 764 x 766 km, 98.1° (Epoch: 08 December)

Event Time Altitude Azimuth Distance (km) Brightness Sun altitude
Rises 17:22:11 0° 151° (SSE) 3,216 6.1 -9.4°
Reaches altitude 10° 17:24:33 10° 146° (SE) 2,293 5.3 -9.8°
Maximum altitude 17:29:23 47° 73° (ENE) 1,001 3.2 -10.8°
Drops below altitude 10° 17:34:14 10° 0° (N) 2,305 5.3 -11.7°
Sets 17:36:37 0° 355° (N) 3,234 6.1 -12.2°
